sat.trackr.live / text

‹ back to catalog

STARLINK-36571

NORAD 67579 · 2026-016U

PAYLOAD ACTIVE UNKNOWN

§ Identity

Operator
Country
US
Launch date
2026-01-25
Launch site
AFWTR
Launch vehicle
Mass (kg)
RCS (m²)

Purposes: comms

External: N2YO · Heavens-Above · Gunter

§ Orbital elements

Epoch: 2026-05-25T03:46:20.453088Z

Period
93.91 min
Inclination
97.2845°
Eccentricity
0.0001143
Mean motion
15.33451670 rev/d
Perigee alt
464.7 km
Apogee alt
466.3 km
Semi-major
6,843.7 km
B*
3.8681e-4
RAAN
205.4964°
Arg perigee
85.1351°
Mean anomaly
275.0022°
Rev number
1,858

§ Raw data

STARLINK-365711 67579U 26016U   26145.15718117  .00012436  00000+0  38681-3 0  99922 67579  97.2845 205.4964 0001143  85.1351 275.0022 15.33451670 18588

JSON: /api/v1/satellites/67579 · /tle

For live sub-satellite position, see the globe view (requires WebGL).

§ Visibility from observer

Set your observer location to see the next 7 days of passes ≥ 10°. The values pass through the URL so the page stays shareable.

No JS? Fill the form by hand. The geolocation button needs JavaScript.